CW4745 Weather Reports


time (UTC)temp
F
wind
direction
speed
knots
gust
knots
rain 1hr
in
rain 24hr
in
rain mn
in
humidity
%
barometer
mb
20211017162357 56 188 4.3 9.6 0.01 0.01 0.01 78 1018.4
20211017161404 56 199 5.2 10.4 0.01 0.01 0.01 79 1018.3
20211017160357 56 179 5.2 12.2 0.01 0.01 0.01 79 1018.2
20211017155356 57 210 6.1 10.4 0.00 0.00 0.00 78 1018.4
20211017154357 57 195 6.1 13.0 0.00 0.00 0.00 76 1018.2
20211017153356 58 189 5.2 14.8 0.00 0.00 0.00 75 1018.4
20211017152357 58 213 5.2 13.0 0.00 0.00 0.00 75 1018.3
20211017151356 58 224 5.2 12.2 0.00 0.00 0.00 74 1018.1
20211017150355 58 241 3.5 13.0 0.00 0.00 0.00 74 1018.2
20211017145354 58 203 6.1 13.9 0.00 0.00 0.00 73 1018.0
20211017144403 58 217 6.1 12.2 0.00 0.00 0.00 73 1017.9
20211017143359 59 192 4.3 12.2 0.00 0.00 0.00 73 1018.1
20211017142355 59 152 6.1 14.8 0.00 0.00 0.00 73 1018.0
20211017141354 59 185 7.0 13.9 0.00 0.00 0.00 72 1017.9
20211017140352 59 226 8.7 16.5 0.00 0.00 0.00 72 1017.9
20211017135355 59 182 5.2 18.2 0.00 0.00 0.00 72 1018.0
20211017134352 59 203 4.3 16.5 0.00 0.00 0.00 72 1018.0
20211017133350 60 230 7.0 14.8 0.00 0.00 0.00 72 1018.0
20211017132350 59 186 7.0 14.8 0.00 0.00 0.00 73 1017.9
20211017131349 59 209 9.6 13.9 0.00 0.00 0.00 73 1018.0
20211017130356 59 209 5.2 14.8 0.00 0.00 0.00 74 1018.0
20211017125350 59 200 6.1 15.6 0.00 0.00 0.00 73 1018.0
20211017124350 59 209 7.0 15.6 0.00 0.00 0.00 73 1018.1
20211017123350 59 165 9.6 19.1 0.00 0.00 0.00 73 1018.0
20211017122349 59 207 7.0 17.4 0.00 0.00 0.00 73 1018.1
20211017121351 59 173 5.2 16.5 0.00 0.00 0.00 74 1018.2
20211017120349 59 179 6.1 13.9 0.00 0.00 0.00 75 1018.2
20211017115349 58 202 6.1 18.2 0.00 0.00 0.00 75 1018.3
20211017114355 58 182 7.0 14.8 0.00 0.00 0.00 75 1018.3
20211017113352 57 224 7.0 15.6 0.00 0.00 0.00 76 1018.3
20211017112350 57 195 5.2 16.5 0.00 0.00 0.00 76 1018.4
20211017111348 57 195 6.1 19.1 0.00 0.00 0.00 76 1018.5
20211017110348 57 193 7.0 15.6 0.00 0.00 0.00 76 1018.5
20211017105349 57 176 7.0 15.6 0.00 0.00 0.00 76 1018.6
20211017104354 57 206 7.0 13.0 0.00 0.00 0.00 76 1018.5
20211017103353 57 183 7.0 12.2 0.00 0.00 0.00 76 1018.4
20211017102348 57 207 6.1 12.2 0.00 0.00 0.00 76 1018.4
20211017101403 57 192 5.2 11.3 0.00 0.00 0.00 76 1018.4
20211017100358 56 179 6.1 13.9 0.00 0.00 0.00 76 1018.3
20211017095358 56 204 7.0 11.3 0.00 0.00 0.00 77 1018.4
20211017094359 56 214 7.8 10.4 0.00 0.00 0.00 77 1018.4
20211017093347 56 245 4.3 11.3 0.00 0.00 0.00 77 1018.3
20211017092349 56 223 3.5 11.3 0.00 0.00 0.00 77 1018.5
20211017091346 56 182 5.2 13.9 0.00 0.00 0.00 77 1018.4
20211017090345 56 154 4.3 8.7 0.00 0.00 0.00 77 1018.4
20211017085348 56 207 4.3 13.9 0.00 0.00 0.00 77 1018.3
20211017084350 56 204 4.3 10.4 0.00 0.00 0.00 77 1018.5
20211017083345 57 195 5.2 12.2 0.00 0.00 0.00 77 1018.3
20211017082345 56 179 3.5 7.8 0.00 0.00 0.00 77 1018.3
20211017081344 55 224 2.6 11.3 0.00 0.00 0.00 78 1018.4
20211017080348 54 196 3.5 9.6 0.00 0.00 0.00 79 1018.4
20211017075344 53 192 5.2 10.4 0.00 0.00 0.00 79 1018.3
20211017074356 53 162 3.5 6.1 0.00 0.00 0.00 79 1018.3
20211017073344 53 148 4.3 7.8 0.00 0.00 0.00 79 1018.3
20211017072343 53 175 3.5 7.8 0.00 0.00 0.00 79 1018.3
20211017071344 53 192 2.6 6.1 0.00 0.00 0.00 79 1018.4
20211017070343 52 186 3.5 6.1 0.00 0.00 0.00 79 1018.4
20211017065343 52 165 2.6 5.2 0.00 0.00 0.00 79 1018.4
20211017064342 52 185 2.6 5.2 0.00 0.00 0.00 79 1018.3
20211017063344 53 161 1.7 4.3 0.00 0.00 0.00 79 1018.4
20211017062342 53 173 3.5 6.1 0.00 0.00 0.00 79 1018.3
20211017061341 53 157 1.7 6.1 0.00 0.00 0.00 79 1018.2
20211017060342 53 185 3.5 7.8 0.00 0.00 0.00 79 1018.2
20211017055341 54 178 3.5 7.8 0.00 0.00 0.00 79 1018.2
20211017054344 54 214 3.5 6.1 0.00 0.00 0.00 79 1018.2
20211017053343 54 173 4.3 9.6 0.00 0.00 0.00 79 1018.2
20211017052341 54 178 3.5 6.1 0.00 0.00 0.00 79 1018.0
20211017051343 55 207 5.2 11.3 0.00 0.00 0.00 78 1018.1
20211017050341 55 180 4.3 9.6 0.00 0.00 0.00 78 1018.0
20211017045340 55 193 4.3 7.8 0.00 0.00 0.00 78 1017.9
20211017044343 55 230 3.5 7.8 0.00 0.00 0.00 78 1017.9
20211017043345 55 182 3.5 8.7 0.00 0.00 0.00 79 1017.8
20211017042340 55 186 3.5 8.7 0.00 0.00 0.00 78 1017.7
20211017041345 55 202 3.5 10.4 0.00 0.00 0.00 78 1017.8
20211017040340 55 193 3.5 9.6 0.00 0.00 0.00 78 1017.9
20211017035339 56 209 5.2 9.6 0.00 0.00 0.00 78 1017.8
20211017034344 56 186 4.3 11.3 0.00 0.00 0.00 78 1017.9
20211017033338 56 240 5.2 8.7 0.00 0.00 0.00 78 1017.9
20211017032344 55 199 3.5 8.7 0.00 0.00 0.00 78 1018.0
20211017031336 55 189 0.9 4.3 0.00 0.00 0.00 77 1018.0
20211017030337 55 227 1.7 6.1 0.00 0.00 0.00 78 1018.1
20211017025348 55 165 3.5 6.1 0.00 0.00 0.00 78 1018.1
20211017024342 55 179 2.6 6.1 0.00 0.00 0.00 77 1018.1
20211017023348 56 220 2.6 8.7 0.00 0.00 0.00 77 1018.1
20211017022335 56 196 3.5 7.8 0.00 0.00 0.00 77 1018.2
20211017021336 56 197 3.5 7.8 0.00 0.00 0.00 77 1018.3
20211017020342 56 227 2.6 8.7 0.00 0.00 0.00 77 1018.3
20211017015337 56 207 2.6 11.3 0.00 0.00 0.00 77 1018.4
20211017014335 56 144 5.2 10.4 0.00 0.00 0.00 76 1018.4
20211017013337 56 221 5.2 8.7 0.00 0.00 0.00 76 1018.4
20211017012336 56 213 3.5 10.4 0.00 0.00 0.00 76 1018.6
20211017011339 56 207 5.2 10.4 0.00 0.00 0.00 76 1018.6
20211017010335 56 207 4.3 11.3 0.00 0.00 0.00 76 1018.6
20211017005344 56 212 3.5 9.6 0.00 0.00 0.00 76 1018.6
20211017004335 56 254 4.3 10.4 0.00 0.00 0.00 76 1018.6
20211017003336 56 219 3.5 13.0 0.00 0.00 0.00 76 1018.6
20211017002334 56 207 5.2 13.0 0.00 0.00 0.00 76 1018.5
20211017001336 56 223 4.3 11.3 0.00 0.00 0.00 76 1018.6
20211017000336 56 220 4.3 13.0 0.00 0.00 0.00 76 1018.7
20211016235337 56 217 5.2 10.4 0.00 0.00 0.00 76 1018.7
20211016234334 56 252 6.1 11.3 0.00 0.00 0.00 76 1018.7
20211016233335 56 254 4.3 10.4 0.00 0.00 0.00 76 1018.7
20211016232335 56 254 5.2 12.2 0.00 0.00 0.00 75 1018.7
20211016231335 56 251 4.3 13.0 0.00 0.00 0.00 75 1018.6
20211016230336 56 240 5.2 14.8 0.00 0.00 0.00 75 1018.7
20211016225332 56 233 6.1 12.2 0.00 0.00 0.00 75 1018.6
20211016224332 56 264 7.0 13.0 0.00 0.00 0.00 76 1018.7
20211016223333 56 269 6.1 11.3 0.00 0.00 0.00 77 1018.7
20211016222330 56 247 7.0 13.0 0.00 0.00 0.00 77 1018.8
20211016221336 56 272 5.2 11.3 0.00 0.00 0.00 77 1018.8
20211016220330 56 243 5.2 10.4 0.00 0.00 0.00 77 1018.9
20211016215331 56 240 7.8 11.3 0.00 0.00 0.00 77 1018.9
20211016214330 56 247 5.2 13.9 0.00 0.00 0.00 77 1018.9
20211016213330 56 275 5.2 13.0 0.00 0.00 0.00 77 1018.9
20211016212331 56 265 5.2 12.2 0.00 0.00 0.00 77 1018.9
20211016211331 56 235 6.1 12.2 0.00 0.00 0.00 77 1019.0
20211016210329 56 261 6.1 12.2 0.00 0.00 0.00 77 1019.0
20211016205329 56 255 5.2 10.4 0.00 0.00 0.00 77 1019.1
20211016204333 56 233 4.3 11.3 0.00 0.00 0.00 78 1019.1
20211016203328 56 235 5.2 11.3 0.00 0.00 0.00 78 1019.1
20211016202328 56 224 4.3 8.7 0.00 0.00 0.00 77 1019.2
20211016201330 56 216 4.3 10.4 0.00 0.00 0.00 77 1019.3
20211016200329 56 252 6.1 12.2 0.00 0.00 0.00 77 1019.3
20211016195328 56 272 6.1 10.4 0.00 0.00 0.00 78 1019.2
20211016194338 56 227 4.3 11.3 0.00 0.00 0.00 78 1019.1
20211016193327 56 257 5.2 8.7 0.00 0.00 0.00 78 1019.2
20211016192327 56 245 4.3 11.3 0.00 0.00 0.00 78 1019.2
20211016191329 56 274 7.0 11.3 0.00 0.00 0.00 78 1019.3
20211016190327 56 230 4.3 9.6 0.00 0.00 0.00 79 1019.3
20211016185327 56 251 6.1 12.2 0.00 0.00 0.00 79 1019.3
20211016184327 56 252 4.3 10.4 0.00 0.00 0.00 78 1019.2
20211016183326 56 250 4.3 11.3 0.00 0.00 0.00 78 1019.2
20211016182329 56 251 7.0 13.9 0.00 0.00 0.00 77 1019.2
20211016181326 56 241 6.1 13.0 0.00 0.00 0.00 77 1019.3
20211016180331 56 258 7.0 14.8 0.00 0.00 0.00 77 1019.2
20211016175323 56 248 7.8 15.6 0.00 0.00 0.00 77 1019.2
20211016174323 56 251 7.0 13.0 0.00 0.00 0.00 77 1019.3
20211016173323 56 228 6.1 12.2 0.00 0.00 0.00 77 1019.3
20211016172322 56 264 4.3 13.0 0.00 0.00 0.00 77 1019.2
20211016171324 56 241 7.0 13.9 0.00 0.00 0.00 77 1019.2
20211016170323 56 216 7.0 14.8 0.00 0.00 0.00 76 1019.0
20211016165322 56 243 5.2 15.6 0.00 0.00 0.00 77 1019.1
20211016164322 56 251 6.1 14.8 0.00 0.00 0.00 77 1019.0
20211016163322 56 243 4.3 13.9 0.00 0.00 0.00 77 1019.0